Regional Weather Roundup
Issued by NWS Huntsville, AL

Home | Current Version | Previous Version | Text Only | Print | Product List | Glossary On
Versions: 1 2 3 4 5 6 7 8 9 10 11 12 13 14 15 16 17 18 19 20 21 22 23 24 25 26 27 28 29 30 31 32 33 34 35 36 37 38 39 40 41 42 43 44 45 46 47 48 49 50
000
ASUS44 KHUN 190810
RWRHUN

WEATHER ROUNDUP FOR THE TENNESSEE VALLEY
NATIONAL WEATHER SERVICE HUNTSVILLE AL
200 AM CST FRI DEC 19 2014

ALZ001>004-190900-
NORTHWEST ALABAMA

CITY           SKY/WX    TMP DP  RH WIND       PRES   REMARKS
COURTLAND HCN    N/A     34 N/A N/A CALM        N/A
RUSSELLVILLE     N/A     41 N/A N/A MISG        N/A
SHOALS AIRPORT CLOUDY    41  35  79 CALM      30.22S
SHOALS TVA RES   N/A     41 N/A N/A MISG        N/A
$$

ALZ005>007-016-190900-
NORTH CENTRAL ALABAMA

CITY           SKY/WX    TMP DP  RH WIND       PRES   REMARKS
CULLMAN AG STN   N/A     37 N/A N/A N5          N/A  WCI  34
DECATUR AP     CLEAR     33  32  96 CALM      30.22R FOG
HUNTSVILLE AP  CLEAR     36  33  89 N3        30.20S FOG
HUN NWS/UAH      N/A     34  31  88 N1          N/A
MERIDIANVILLE  CLEAR     32  28  86 N5        30.19F FOG     WCI  27
REDSTONE ARSN  CLEAR     34  32  93 N3        30.19S
VINEMONT AP    FAIR      36  34  94 CALM      30.20S
$$

ALZ008>010-190900-
NORTHEAST ALABAMA

CITY           SKY/WX    TMP DP  RH WIND       PRES   REMARKS
ALBERTVILLE    CLEAR     36  36 100 CALM      30.16R
FORT PAYNE     CLEAR     32  28  86 CALM      30.17S
SCOTTSBORO AP  CLOUDY    32  30  93 CALM      30.19S
VALLEY HEAD      N/A     28 N/A N/A MISG        N/A
$$

TNZ076-096-097-190900-
SOUTHEASTERN MIDDLE TENNESSEE

CITY           SKY/WX    TMP DP  RH WIND       PRES   REMARKS
TULLAHOMA      CLEAR     27  25  93 CALM      30.19S
WINCHESTER     CLOUDY    27  27 100 CALM      30.19S VSB 1/4
$$

...SURROUNDING SITES...

CITY           SKY/WX    TMP DP  RH WIND       PRES   REMARKS
ATLANTA        MOCLDY    39  33  79 NW6       30.12F WCI  35
ANNISTON       PTCLDY    29  27  92 CALM      30.18S
BIRMINGHAM     PTCLDY    33  31  92 CALM      30.21R
CHATTANOOGA    CLEAR     36  32  85 CALM      30.18F
CORINTH        CLOUDY    43  37  81 CALM      30.21S
DALTON         CLEAR     34  34 100 CALM      30.16F
GADSDEN        PTCLDY    30  27  86 CALM      30.18S
GOLDEN TRNGL   CLOUDY    37  34  87 N5        30.19F WCI  34
HALEYVILLE     CLOUDY    40  36  86 CALM      30.21R
JACKSON TN     CLOUDY    39  34  82 CALM      30.23S
LEWISBURG      CLOUDY    34  33  96 CALM      30.21S
MEMPHIS        CLOUDY    44  37  76 NE8       30.21F
MURFREESBORO   CLOUDY    34  31  89 N3        30.22S
NASHVILLE      CLOUDY    35  30  82 N7        30.24S WCI  29
OXFORD MS      CLOUDY    41  37  87 E5        30.21F
ROME           CLEAR     33  32  96 CALM      30.16F
TUPELO         CLOUDY    44  38  79 NE7       30.21S
TUSCALOOSA     CLOUDY    37  34  89 CALM      30.20S
$$

...GULF COAST WEATHER...

CITY           SKY/WX    TMP DP  RH WIND       PRES   REMARKS
GULFPORT       CLOUDY    54  49  83 NE7       30.12F
PASCAGOULA     CLOUDY    54  47  77 N6        30.14F
MOBILE         CLOUDY    52  32  46 NE6       30.14F
GULF SHORES    CLOUDY    54  43  68 NE3       30.13F
PENSACOLA      PTCLDY    52  44  74 N5        30.13F
DESTIN         MOCLDY    55  44  66 N6        30.14R
PANAMA CITY    MOCLDY    48  47  99 CALM      30.13S
APPALACHICOLA  CLOUDY    49  44  83 CALM      30.12F
$$



USA.gov is the U.S. government's official web portal to all federal, state and local government web resources and services.